轨道通信卫星FM06星 (ORBCOMM FM06)

导读

ORBCOMM FM 6是ORBCOMM(轨道通信)公司于1997年12月23日发射的低地球轨道通信卫星,隶属于第一代ORBCOMM卫星星座。该卫星系统主打机器对机器(M2M)与物联网数据传输服务,运行于近地轨道,工作在VHF/UHF波段,凭借低时延特性为全球提供低成本窄带数据通信服务,推动了早期天基物联网的商业化应用。

基本信息
目录编号:
25118
目录名称:
ORBCOMM FM 6
国际标识:
1997-084G
轨道中心:
EARTH
卫星名称:
轨道通信卫星FM06星
卫星全名:
轨道通信卫星FM06星 (ORBCOMM FM06)
卫星状态:
在轨 (已飞行10489 天)
发射日期:
1997-12-23 UTC
国别 :
(ORB)
星等 :
--
该卫星已列入 空间交会检测服务 Space Conjunction Data Service (SCDS) ,当前飞行风险评估等级: 高风险
轨道信息
数据来源 国际轨道数据
星历时间: 2026-09-10T21:37:24+0800
21小时前
查看轨道信息
半长轴: 7111.183km
偏心率: 0.0001542
轨道倾角: 45.015°
近地点辐角 230.558°
升交点赤经 1.626°
平近点角 144.312°
近地点: 731.949km
远地点: 734.143km
周期: 99.466分钟
每日圈数: 14.477381
详细信息
固有亮度:
8
最大亮度:
6.9
平衡模式:
三轴稳定
覆盖范围:
全球
运营商:
轨道通信公司
运营商所在国:
美国
制造商(研发单位):
轨道ATK公司
制造商所在国:
美国
使用方式:
暂无
卫星简介
轨道通信FM(Orbcomm FM)是一系列低地球轨道通信卫星,由美国卫星通信公司 Orbcomm运营。 截至2015年12月,已有63颗此类卫星绕地球运行。该卫星仍在工作。
2D轨道图
3D轨道图
轨道高度分析图
轨道倾角分析图
轨道综合分析图
查看轨道综合分析图
交会数据列表
事件ID 空间交会对象 最接近时刻(TCA) 交会距离 交会风险概率(CRP) 交会风险指数(CRI) 操作
CDM_260911-170202-511802-975825
2026-09-11T
17:02:27+0000
0.374 km
远距离
2.572872E-4 高风险 0.83
CDM_260913-101902-511803-481421
2026-09-13T
10:19:23+0000
1.536 km
极远距离
5.651379E-6 低风险 0.5
CDM_260912-063902-511803-479325
2026-09-12T
06:39:56+0000
1.492 km
极远距离
5.540864E-6 低风险 0.5
CDM_260913-030602-511803-414121
2026-09-13T
03:06:18+0000
1.717 km
极远距离
3.644199E-6 低风险 0.46
CDM_260911-130402-511803-910322
2026-09-11T
13:04:28+0000
2.726 km
极远距离
1.402218E-6 低风险 0.38
与全量物体交会距离演化趋势
与全量物体交会风险概率演化趋势